Probability
0 0 0 0 0 0 1 2 2 3 3 2 1 0 1 2 3 2 3 4 4 3 3 1 0 0 0 0 0 0 0 0 0 0 0 0 0 0 0 0 0 0 0
0 0 0 0 0 0 0 1 1 2 3 2 1 0 1 2 2 1 1 3 3 3 3 2 1 0 0 0 0 0 0 0 0 0 0 0 0 0 0 0 0 0 0
0 0 0 0 0 0 0 0 0 1 3 2 1 0 0 1 1 0 0 1 2 3 3 3 2 1 0 0 0 0 0 0 0 0 0 0 0 0 0 0 0 0 0
0 0 0 0 0 0 0 0 0 1 2 2 1 0 0 0 0 0 0 0 1 2 3 3 2 1 0 0 0 0 0 0 0 0 0 0 0 0 0 0 0 0 0
0 0 0 0 0 0 0 0 0 0 1 2 1 0 0 0 0 0 0 0 0 1 1 2 1 0 0 0 0 0 0 0 0 0 0 0 0 0 0 0 0 0 0
0 0 0 0 0 0 0 0 0 0 1 1 1 0 0 0 0 0 0 0 0 0 0 0 0 0 0 0 0 0 0 0 0 0 0 0 0 0 0 0 0 0 0
0 0 0 0 0 0 0 0 0 0 0 1 1 0 0 0 0 0 0 0 0 0 0 0 0 0 0 0 0 0 0 0 0 0 0 0 0 0 0 0 0 0 0
0 0 0 0 0 0 0 0 0 0 0 0 0 0 0 0 0 0 0 0 0 0 0 0 0 0 0 0 0 0 0 0 0 0 0 0 0 0 0 0 0 0 0
0 0 0 0 0 0 0 0 0 0 0 0 0 0 0 0 0 0 0 0 0 0 0 0 0 0 0 0 0 0 0 0 0 0 0 0 0 0 0 0 0 0 0
0 0 0 0 0 0 0 0 0 0 0 0 0 0 0 0 0 0 0 0 0 0 0 0 0 0 0 0 0 0 0 0 0 0 0 0 0 0 0 0 0 0 0
0 0 0 0 0 0 0 0 0 0 0 0 0 0 0 0 0 0 0 0 0 0 0 0 0 0 0 0 0 0 0 0 0 0 0 0 0 0 0 0 0 0 0
0 0 0 0 0 0 0 0 0 0 0 0 0 0 0 0 0 0 0 0 0 0 0 0 0 0 0 0 0 0 0 0 0 0 0 0 0 0 0 0 0 0 0
0 0 0 0 0 0 0 0 0 0 0 0 0 0 0 0 0 0 0 0 0 0 0 0 0 0 0 0 0 0 0 0 0 0 0 0 0 0 0 0 0 0 0
0 0 0 0 0 0 0 0 0 0 0 0 0 0 0 0 0 0 0 0 0 0 0 0 0 0 0 0 0 0 0 0 0 0 0 0 0 0 0 0 0 0 0
0 0 0 0 0 0 0 0 0 0 0 0 0 0 0 0 0 0 0 0 0 0 0 0 0 0 0 0 0 0 0 0 0 0 0 0 0 0 0 0 0 0 0
0 0 0 0 0 0 0 0 0 0 0 0 0 0 0 0 0 0 0 0 0 0 0 0 0 0 0 0 0 0 0 0 0 0 0 0 0 0 0 0 0 0 0
0 0 0 0 0 0 0 0 0 0 0 0 0 0 0 0 0 0 0 0 0 0 0 0 0 0 0 0 0 0 0 0 0 0 0 0 0 0 0 0 0 0 0
0 0 0 0 0 0 0 0 0 0 0 0 0 0 0 0 0 0 0 0 0 0 0 0 0 0 0 0 0 0 0 0 0 0 0 0 0 0 0 0 0 0 0
0 0 0 0 0 0 0 0 0 0 0 0 0 0 0 0 0 0 0 0 0 0 0 0 0 0 0 0 0 0 0 0 0 0 0 0 0 0 0 0 0 0 0
0 0 0 0 0 0 0 0 0 0 0 0 0 0 0 0 0 0 0 0 0 0 0 0 0 0 0 0 0 0 0 0 0 0 0 0 0 0 0 0 0 0 0
0 0 0 0 0 0 0 0 0 0 0 0 0 0 0 0 0 0 0 0 0 0 0 0 0 0 0 0 0 0 0 0 0 0 0 0 0 0 0 0 0 0 0
0 0 0 0 0 0 0 0 0 0 0 0 0 0 0 0 0 0 0 0 0 0 0 0 0 0 0 0 0 0 0 0 0 0 0 0 0 0 0 0 0 0 0
0 0 0 0 0 0 0 0 0 0 0 0 0 0 0 0 0 0 0 0 0 0 0 0 0 0 0 0 0 0 0 0 0 0 0 0 0 0 0 0 0 0 0
0 0 0 0 0 0 0 0 0 0 0 0 0 0 0 0 0 0 0 0 0 0 0 0 0 0 0 0 0 0 0 0 0 0 0 0 0 0 0 0 0 0 0
0 0 0 0 0 0 0 0 0 0 0 0 0 0 0 0 0 0 0 0 0 0 0 0 0 0 0 0 0 0 0 0 0 0 0 0 0 0 0 0 0 0 0
0 0 0 0 0 0 0 0 0 0 0 0 0 0 0 0 0 0 0 0 0 0 0 0 0 0 0 0 0 0 0 0 0 0 0 0 0 0 0 0 0 0 0
Wind_Speed
3 3 2 3 3 3 3 2 2 2 2 1 1 2 2 2 2 2 2 2 2 2 2 1 1 1 1 1 1 1 1 1 1 1 1 2 1 2 1 1 1 1 1
2 2 3 3 3 2 2 2 2 1 1 1 1 1 2 2 2 2 2 2 2 2 2 2 1 1 1 1 1 1 0 1 1 1 0 1 2 2 1 1 1 1 1
2 2 2 2 2 2 1 1 2 1 2 2 2 2 2 2 2 1 1 2 2 2 2 2 1 1 1 0 1 0 0 0 1 1 1 1 1 2 1 1 1 1 1
2 3 3 2 2 2 1 2 2 2 2 2 2 2 2 2 1 1 1 1 2 2 2 1 1 1 1 0 1 1 0 1 1 1 1 1 1 1 2 2 1 1 1
3 3 3 2 2 2 2 2 2 2 1 1 1 1 1 1 1 1 1 1 1 1 1 1 1 1 1 1 1 1 0 0 1 0 1 1 1 0 1 2 2 2 1
3 3 3 3 2 3 2 2 2 2 1 1 1 1 2 1 1 1 1 0 1 1 1 0 1 1 1 1 1 1 1 1 1 0 0 0 0 1 1 2 2 2 2
3 3 3 3 2 2 2 1 1 1 1 1 1 1 1 1 1 0 0 0 0 0 0 1 1 1 1 2 1 2 1 1 1 1 1 1 1 1 1 1 2 2 2
2 3 2 2 2 2 1 1 0 0 1 1 0 0 1 1 1 0 1 1 1 1 1 1 1 1 2 2 2 2 2 2 2 2 2 1 1 1 1 1 1 2 3
3 3 3 2 2 1 1 1 1 1 1 1 0 0 0 0 0 1 1 1 0 0 1 1 1 2 2 2 2 2 3 3 3 3 2 2 1 1 1 1 2 2 3
3 2 2 2 1 1 1 1 0 1 1 0 0 0 1 1 1 0 1 1 1 1 1 1 1 1 2 2 2 2 2 3 2 2 2 2 2 2 2 2 2 2 3
2 2 2 1 1 1 0 0 0 0 1 1 1 1 1 1 1 1 2 1 1 1 1 2 1 1 2 2 2 2 3 3 3 2 3 4 3 2 2 2 2 3 3
1 2 2 2 2 1 1 0 0 0 1 1 1 2 1 1 1 1 2 2 2 2 2 2 2 2 2 2 2 3 3 3 3 3 4 4 3 4 3 3 3 3 3
1 1 1 2 2 2 2 1 0 1 1 1 2 2 1 1 2 2 2 2 2 2 2 2 2 3 3 3 3 3 3 3 3 4 4 4 4 4 3 3 4 3 3
1 2 2 2 2 2 2 2 1 1 2 1 1 2 2 2 2 2 2 2 2 2 2 3 3 3 3 3 3 3 3 3 3 4 4 4 4 5 4 4 4 4 3
1 1 2 2 3 3 3 2 2 1 2 2 2 2 2 2 2 2 2 2 3 3 2 3 3 3 3 3 3 3 3 3 4 4 4 4 5 6 5 4 4 4 3
1 2 2 2 3 3 3 3 3 2 2 2 3 2 2 2 2 2 2 3 3 3 2 3 3 3 3 6 6 4 3 3 4 4 4 4 5 7 8 9 8 6 5
2 3 3 3 3 3 3 3 3 2 3 3 3 2 2 2 3 3 3 3 3 3 3 3 3 3 5 7 8 7 4 3 4 4 4 4 4 5 4 6 8 8 9
3 3 2 3 3 2 3 3 3 2 2 3 3 2 3 3 3 3 3 3 3 3 3 3 4 4 5 8 8 8 4 4 4 4 4 4 4 4 4 4 4 5 5
2 2 2 3 3 3 3 3 3 2 2 3 3 3 3 3 3 4 4 3 3 3 3 3 4 4 4 7 8 7 3 3 4 4 4 5 4 7 8 5 4 5 5
2 2 2 2 3 2 2 2 3 3 3 3 3 3 3 4 4 4 4 3 3 4 3 4 4 4 4 7 7 7 2 3 3 3 4 7 7 8 8 5 4 6 5
3 2 2 2 3 2 2 2 3 3 3 3 3 4 4 4 4 4 3 3 3 3 3 4 4 4 5 6 7 7 3 3 3 3 3 4 9 9 9 7 5 7 6
3 2 2 3 2 2 2 3 3 3 3 3 4 4 4 4 4 3 3 3 3 3 3 3 4 3 4 5 6 7 7 6 4 4 3 5 9 9 9 7 8 9 7
3 2 2 3 3 2 2 3 3 2 3 4 4 4 4 4 4 3 3 3 2 3 3 3 3 3 3 4 7 8 8 8 5 4 7 8 9 9 7 8 10 7 3
3 2 2 3 4 3 3 3 3 2 3 4 4 4 4 4 3 3 2 3 3 3 3 3 3 3 3 3 3 3 4 6 5 4 6 8 8 7 7 7 5 3 3
3 3 3 4 5 4 3 3 3 3 3 4 4 4 4 3 3 3 3 4 4 4 4 3 3 3 4 5 7 4 3 3 4 4 2 3 3 3 3 3 3 3 3
3 3 4 4 4 4 4 3 3 3 3 4 4 3 3 3 3 3 3 5 6 8 9 7 6 5 7 8 8 8 8 8 8 4 3 3 3 4 4 4 3 3 3
Wind_Direction
123 113 103 89 70 56 68 81 80 71 68 65 99 127 128 127 120 116 119 119 111 105 102 92 87 51 37 8 346 349 328 345 7 355 307 294 237 197 196 166 125 117 118
97 89 89 86 89 75 61 65 80 80 72 63 77 128 134 129 130 118 110 119 119 118 120 117 120 93 14 6 348 359 358 321 64 110 32 314 306 287 220 160 155 159 109
148 120 101 84 83 74 56 61 55 72 71 65 64 77 78 85 93 107 119 130 140 141 136 145 152 142 118 287 297 305 105 246 268 135 131 161 249 308 281 205 179 172 180
137 131 119 111 95 74 59 64 60 60 78 93 98 111 127 142 142 149 149 152 144 143 134 132 156 153 156 202 267 304 289 156 232 295 283 214 181 154 307 306 257 223 211
141 132 117 116 106 90 69 62 69 57 66 103 105 111 89 101 97 104 116 136 141 136 130 146 182 175 179 200 242 283 281 187 160 228 291 311 318 177 186 275 305 310 266
119 121 113 103 93 85 72 57 60 55 54 101 121 119 107 74 79 98 139 167 129 115 103 234 236 212 202 212 239 256 240 248 232 222 221 246 261 271 229 252 283 287 283
100 106 111 101 85 76 67 50 45 19 23 88 115 138 145 142 139 132 209 186 161 152 202 247 247 241 227 221 216 235 238 229 225 223 236 249 259 275 268 269 289 298 294
77 88 103 111 101 92 79 60 55 359 9 32 11 299 181 170 183 224 224 223 214 208 209 247 240 255 260 249 223 221 225 225 226 232 225 241 254 250 236 229 264 297 291
62 70 72 81 95 86 57 29 1 349 338 337 317 295 235 164 219 284 280 260 284 275 216 248 242 241 242 246 237 233 229 225 226 224 218 221 239 249 249 239 221 223 263
36 42 53 55 54 78 57 33 314 276 279 279 247 249 204 193 204 239 273 280 291 309 282 268 257 255 250 237 236 244 240 230 229 228 222 221 224 235 239 236 245 233 232
13 15 20 16 22 48 72 200 233 253 266 254 241 237 211 200 211 223 236 241 248 248 250 259 262 264 263 256 245 250 245 237 244 244 233 232 229 231 236 241 244 245 238
13 2 3 5 1 354 332 257 246 290 284 253 248 233 217 218 230 240 241 242 243 235 234 244 252 262 268 263 254 263 254 245 245 245 240 239 239 239 236 236 241 245 246
359 2 12 351 338 332 318 285 264 286 292 269 255 248 237 234 241 251 248 247 242 237 233 237 247 252 254 260 261 257 262 264 254 249 245 245 238 241 242 239 240 243 253
8 5 351 336 334 325 313 310 297 289 291 282 255 249 250 245 250 254 247 249 246 233 229 234 243 249 254 257 260 260 264 265 261 255 248 246 242 245 244 244 243 246 247
346 327 319 322 323 322 325 325 315 305 296 283 264 254 265 261 259 254 253 256 254 246 232 234 242 247 248 255 265 262 263 263 263 258 253 253 256 257 256 256 248 247 246
272 288 292 300 305 308 316 315 310 306 301 286 273 269 264 256 257 256 251 252 251 240 236 237 238 243 256 268 273 276 265 268 269 268 262 261 257 259 264 266 263 253 247
274 274 277 284 293 295 299 293 292 294 287 279 279 276 276 269 264 264 257 253 251 240 240 240 236 238 252 266 269 273 269 263 264 269 270 273 271 273 265 271 272 270 267
283 285 287 295 294 293 298 290 285 280 279 280 281 282 285 279 270 263 259 260 261 249 246 247 245 245 254 268 272 274 263 256 259 263 264 267 265 264 270 267 268 268 271
276 274 278 286 290 288 287 282 277 277 276 278 282 282 277 271 265 260 256 259 260 257 253 253 249 250 258 271 277 277 260 255 261 261 260 263 261 270 278 274 270 275 278
294 291 301 299 289 276 268 263 266 267 267 274 282 285 280 267 261 260 262 260 257 255 256 260 254 252 251 264 271 278 260 260 267 265 260 263 267 270 274 266 262 269 276
289 292 287 279 271 266 259 257 266 267 279 286 284 280 275 269 263 260 259 258 259 256 257 259 258 252 257 265 269 274 269 263 270 270 269 269 276 275 275 274 259 264 277
284 286 282 280 274 251 242 257 264 274 291 289 284 280 274 270 269 261 259 256 253 251 256 259 265 258 259 265 266 271 273 278 266 266 268 273 281 283 281 278 277 280 284
281 284 277 283 281 254 230 249 265 281 289 285 282 281 279 270 265 259 257 254 245 245 254 256 263 268 262 264 272 275 276 280 279 271 277 281 283 287 282 278 280 281 270
284 287 283 279 281 270 250 248 260 268 271 275 279 278 278 276 270 259 249 247 243 243 249 252 258 265 263 257 259 270 278 279 281 280 276 279 280 284 282 279 275 263 252
281 270 266 267 271 269 260 251 245 246 257 265 269 270 269 267 267 262 250 248 243 243 252 251 249 258 261 266 280 287 281 278 269 284 272 266 269 267 269 268 260 251 254
277 274 272 273 275 269 265 257 237 231 243 260 266 264 264 263 261 267 276 264 264 270 272 273 272 268 271 279 281 284 286 285 282 281 265 262 261 259 262 265 263 252 250